Kendall, FL

12:41 PM EDT on May 27, 2017 (GMT -0400)
Kendall-Tamiami Executive

Weather History for KTMB - May, 2014

Change the Weather History Date:

Monday, May 26, 2014

  Actual Average Record
Temperature  
Mean Temperature 82 °F -  
Max Temperature 91 °F 85 °F 91 °F (1997)
Min Temperature 73 °F 69 °F 58 °F (1992)
Cooling Degree Days 16    
Growing Degree Days 32 (Base 50)    
Moisture  
Dew Point 71 °F    
Average Humidity 70    
Maximum Humidity 87    
Minimum Humidity 46    
Precipitation  
Precipitation 0.00 in - - ()
Sea Level Pressure  
Sea Level Pressure 30.12 in    
Wind  
Wind Speed 8 mph (East)    
Max Wind Speed 17 mph    
Max Gust Speed 23 mph    
Visibility 10 miles    
Events      
Averages and records for this station are not official NWS values.
T = Trace of Precipitation, MM = Missing Value Source: NWS Daily Summary

Daily Weather History Graph

Daily Weather History Graph

Search for Another Location

Airport or City:

Trip Planner

Search our weather history database for the weather conditions in past years. The results will help you decide how hot, cold, wet, or windy it might be!

Date:

Astronomy

May. 26, 2014 Rise Set
Actual Time 6:31 AM EDT 8:05 PM EDT
Civil Twilight 6:06 AM EDT 8:31 PM EDT
Nautical Twilight 5:36 AM EDT 9:01 PM EDT
Astronomical Twilight 5:04 AM EDT 9:33 PM EDT
Moon 4:58 AM EDT (5/26) 6:18 PM EDT (5/26)
Length of Visible Light 14h 24m
Length of Day
13h 34m
Waning Crescent, 5% of the Moon is Illuminated
May 26
Waning Crescent
May 28
New
Jun 5
First Quarter
Jun 13
Full
Jun 19
Last Quarter

Hourly Weather History & Observations

Time (EDT) Temp. Heat Index Dew Point Humidity Pressure Visibility Wind Dir Wind Speed Gust Speed Precip Events Conditions
12:53 AM 75.9 °F - 70.0 °F 82% 30.11 in 10.0 mi East 6.9 mph - N/A   Clear
1:53 AM 73.9 °F - 70.0 °F 87% 30.09 in 10.0 mi East 6.9 mph - N/A   Clear
2:53 AM 77.0 °F - 72.0 °F 84% 30.09 in 10.0 mi NE 5.8 mph - N/A   Clear
3:53 AM 75.9 °F - 71.1 °F 85% 30.09 in 10.0 mi NE 3.5 mph - N/A   Clear
4:53 AM 75.0 °F - 71.1 °F 87% 30.09 in 10.0 mi ENE 3.5 mph - N/A   Clear
5:53 AM 73.9 °F - 70.0 °F 87% 30.10 in 10.0 mi Calm Calm - N/A   Clear
6:53 AM 75.9 °F - 72.0 °F 87% 30.12 in 10.0 mi Calm Calm - N/A   Mostly Cloudy
7:53 AM 80.1 °F 84.2 °F 73.0 °F 79% 30.13 in 10.0 mi East 6.9 mph - N/A   Scattered Clouds
8:53 AM 82.0 °F 87.4 °F 73.0 °F 74% 30.14 in 10.0 mi ESE 4.6 mph - N/A   Partly Cloudy
9:53 AM 86.0 °F 92.2 °F 72.0 °F 63% 30.15 in 10.0 mi East 10.4 mph 17.3 mph N/A   Scattered Clouds
10:53 AM 86.0 °F 90.7 °F 70.0 °F 59% 30.16 in 10.0 mi East 8.1 mph - N/A   Mostly Cloudy
11:53 AM 89.1 °F 96.0 °F 72.0 °F 57% 30.17 in 10.0 mi ESE 15.0 mph - N/A   Partly Cloudy
12:53 PM 90.0 °F 92.8 °F 66.9 °F 46% 30.16 in 10.0 mi East 12.7 mph - N/A   Clear
1:53 PM 90.0 °F 94.5 °F 69.1 °F 50% 30.14 in 10.0 mi ESE 15.0 mph 19.6 mph N/A   Partly Cloudy
2:53 PM 89.1 °F 93.7 °F 69.1 °F 52% 30.12 in 10.0 mi East 17.3 mph 21.9 mph N/A   Partly Cloudy
3:53 PM 89.1 °F 93.7 °F 69.1 °F 52% 30.10 in 10.0 mi ESE 16.1 mph 23.0 mph N/A   Partly Cloudy
4:53 PM 89.1 °F 93.7 °F 69.1 °F 52% 30.10 in 10.0 mi East 12.7 mph - N/A   Scattered Clouds
5:53 PM 86.0 °F 90.7 °F 70.0 °F 59% 30.09 in 10.0 mi East 12.7 mph - N/A   Partly Cloudy
6:53 PM 84.0 °F 89.0 °F 71.1 °F 65% 30.09 in 10.0 mi East 15.0 mph - N/A   Scattered Clouds
7:53 PM 81.0 °F 84.9 °F 71.1 °F 72% 30.10 in 10.0 mi East 9.2 mph - N/A   Partly Cloudy
8:53 PM 80.1 °F 83.8 °F 72.0 °F 76% 30.13 in 10.0 mi East 10.4 mph - N/A   Clear
9:53 PM 80.1 °F 83.8 °F 72.0 °F 76% 30.14 in 10.0 mi East 9.2 mph - N/A   Clear
10:53 PM 79.0 °F - 72.0 °F 79% 30.14 in 10.0 mi East 8.1 mph - N/A   Clear
11:53 PM 79.0 °F - 72.0 °F 79% 30.14 in 10.0 mi East 8.1 mph - N/A   Clear